Time,TemperatureF,DewpointF,PressureIn,WindDirection,WindDirectionDegrees,WindSpeedMPH,WindSpeedGustMPH,Humidity,HourlyPrecipIn,Conditions,Clouds,dailyrainin,SoftwareType,DateUTC
2013-08-21 00:02:00,74.5,66.1,29.55,WSW,243,0.0,0.0,75,0.00,,,0.00,Wunderground v.1.15,2013-08-21 05:02:00,
2013-08-21 00:07:00,74.3,66.2,29.55,WSW,243,0.0,5.0,76,0.00,,,0.00,Wunderground v.1.15,2013-08-21 05:07:00,
2013-08-21 00:12:00,74.1,66.0,29.55,WSW,243,0.0,0.0,76,0.00,,,0.00,Wunderground v.1.15,2013-08-21 05:12:00,
2013-08-21 00:18:00,74.0,66.3,29.55,WSW,243,0.0,0.0,77,0.00,,,0.00,Wunderground v.1.15,2013-08-21 05:18:00,
2013-08-21 00:23:00,73.9,66.2,29.55,WSW,243,0.0,0.0,77,0.00,,,0.00,Wunderground v.1.15,2013-08-21 05:23:00,
2013-08-21 00:28:00,73.8,66.1,29.55,WSW,243,0.0,0.0,77,0.00,,,0.00,Wunderground v.1.15,2013-08-21 05:28:00,
2013-08-21 00:34:00,73.6,66.3,29.55,WSW,243,0.0,0.0,78,0.00,,,0.00,Wunderground v.1.15,2013-08-21 05:34:00,
2013-08-21 00:39:00,73.4,66.1,29.55,WSW,243,0.0,0.0,78,0.00,,,0.00,Wunderground v.1.15,2013-08-21 05:39:00,
2013-08-21 00:45:00,73.3,66.0,29.55,WSW,243,0.0,0.0,78,0.00,,,0.00,Wunderground v.1.15,2013-08-21 05:45:00,
2013-08-21 00:50:00,73.1,65.8,29.55,WSW,243,0.0,0.0,78,0.00,,,0.00,Wunderground v.1.15,2013-08-21 05:50:00,
2013-08-21 00:55:00,73.0,66.1,29.55,WSW,243,0.0,0.0,79,0.00,,,0.00,Wunderground v.1.15,2013-08-21 05:55:00,
2013-08-21 01:00:00,72.9,66.0,29.55,WSW,243,0.0,0.0,79,0.00,,,0.00,Wunderground v.1.15,2013-08-21 06:00:00,
2013-08-21 01:06:00,72.7,65.8,29.55,WSW,243,0.0,0.0,79,0.00,,,0.00,Wunderground v.1.15,2013-08-21 06:06:00,
2013-08-21 01:11:00,72.7,65.8,29.55,WSW,243,0.0,0.0,79,0.00,,,0.00,Wunderground v.1.15,2013-08-21 06:11:00,
2013-08-21 01:17:00,72.6,65.7,29.55,WSW,243,0.0,0.0,79,0.00,,,0.00,Wunderground v.1.15,2013-08-21 06:17:00,
2013-08-21 01:22:00,72.5,65.6,29.55,WSW,243,0.0,0.0,79,0.00,,,0.00,Wunderground v.1.15,2013-08-21 06:22:00,
2013-08-21 01:27:00,72.7,65.4,29.55,WSW,243,0.0,0.0,78,0.00,,,0.00,Wunderground v.1.15,2013-08-21 06:27:00,
2013-08-21 01:33:00,72.4,65.5,29.55,WSW,243,0.0,0.0,79,0.00,,,0.00,Wunderground v.1.15,2013-08-21 06:33:00,
2013-08-21 01:38:00,72.4,65.5,29.55,WSW,243,0.0,1.0,79,0.00,,,0.00,Wunderground v.1.15,2013-08-21 06:38:00,
2013-08-21 01:43:00,72.4,65.5,29.55,WSW,243,0.0,0.0,79,0.00,,,0.00,Wunderground v.1.15,2013-08-21 06:43:00,
2013-08-21 01:49:00,72.3,65.4,29.55,WSW,243,0.0,1.0,79,0.00,,,0.00,Wunderground v.1.15,2013-08-21 06:49:00,
2013-08-21 01:54:00,72.3,65.4,29.55,WSW,243,0.0,0.0,79,0.00,,,0.00,Wunderground v.1.15,2013-08-21 06:54:00,
2013-08-21 02:00:00,72.2,65.3,29.55,WSW,243,0.0,3.0,79,0.00,,,0.00,Wunderground v.1.15,2013-08-21 07:00:00,
2013-08-21 02:06:00,72.1,65.2,29.55,WSW,243,0.0,3.0,79,0.00,,,0.00,Wunderground v.1.15,2013-08-21 07:06:00,
2013-08-21 02:11:00,72.0,65.1,29.55,WSW,243,0.0,0.0,79,0.00,,,0.00,Wunderground v.1.15,2013-08-21 07:11:00,
2013-08-21 02:17:00,71.9,65.4,29.55,WSW,243,0.0,0.0,80,0.00,,,0.00,Wunderground v.1.15,2013-08-21 07:17:00,
2013-08-21 02:23:00,71.8,64.9,29.55,WSW,243,0.0,0.0,79,0.00,,,0.00,Wunderground v.1.15,2013-08-21 07:23:00,
2013-08-21 02:29:00,71.7,65.2,29.55,WSW,243,0.0,0.0,80,0.00,,,0.00,Wunderground v.1.15,2013-08-21 07:29:00,
2013-08-21 02:34:00,71.6,65.1,29.55,WSW,243,0.0,0.0,80,0.00,,,0.00,Wunderground v.1.15,2013-08-21 07:34:00,
2013-08-21 02:40:00,71.5,65.0,29.55,WSW,243,0.0,0.0,80,0.00,,,0.00,Wunderground v.1.15,2013-08-21 07:40:00,
2013-08-21 02:45:00,71.4,64.9,29.55,WSW,243,0.0,3.0,80,0.00,,,0.00,Wunderground v.1.15,2013-08-21 07:45:00,
2013-08-21 02:51:00,71.3,64.8,29.55,WSW,243,0.0,0.0,80,0.00,,,0.00,Wunderground v.1.15,2013-08-21 07:51:00,
2013-08-21 02:57:00,71.2,64.7,29.55,WSW,243,0.0,0.0,80,0.00,,,0.00,Wunderground v.1.15,2013-08-21 07:57:00,
2013-08-21 03:02:00,71.1,65.0,29.55,WSW,243,0.0,0.0,81,0.00,,,0.00,Wunderground v.1.15,2013-08-21 08:02:00,
2013-08-21 03:08:00,71.0,64.9,29.54,WSW,243,0.0,0.0,81,0.00,,,0.00,Wunderground v.1.15,2013-08-21 08:08:00,
2013-08-21 03:13:00,70.9,64.8,29.54,WSW,243,0.0,0.0,81,0.00,,,0.00,Wunderground v.1.15,2013-08-21 08:13:00,
2013-08-21 03:18:00,70.7,64.6,29.54,WSW,243,0.0,2.0,81,0.00,,,0.00,Wunderground v.1.15,2013-08-21 08:18:00,
2013-08-21 03:24:00,70.5,64.7,29.54,WSW,243,0.0,0.0,82,0.00,,,0.00,Wunderground v.1.15,2013-08-21 08:24:00,
2013-08-21 03:39:00,70.4,64.6,29.54,WSW,243,0.0,0.0,82,0.00,,,0.00,Wunderground v.1.15,2013-08-21 08:39:00,
2013-08-21 03:45:00,70.3,64.5,29.54,WSW,243,0.0,1.0,82,0.00,,,0.00,Wunderground v.1.15,2013-08-21 08:45:00,
2013-08-21 03:50:00,70.1,64.3,29.54,WSW,243,0.0,2.0,82,0.00,,,0.00,Wunderground v.1.15,2013-08-21 08:50:00,
2013-08-21 03:55:00,70.1,64.7,29.54,WSW,243,0.0,0.0,83,0.00,,,0.00,Wunderground v.1.15,2013-08-21 08:55:00,
2013-08-21 04:00:00,70.0,64.6,29.54,WSW,243,0.0,0.0,83,0.00,,,0.00,Wunderground v.1.15,2013-08-21 09:00:00,
2013-08-21 04:06:00,70.0,64.6,29.54,WSW,243,0.0,2.0,83,0.00,,,0.00,Wunderground v.1.15,2013-08-21 09:06:00,
2013-08-21 04:11:00,70.1,64.7,29.54,WSW,243,0.0,0.0,83,0.00,,,0.00,Wunderground v.1.15,2013-08-21 09:11:00,
2013-08-21 04:17:00,70.1,64.7,29.54,WSW,243,0.0,0.0,83,0.00,,,0.00,Wunderground v.1.15,2013-08-21 09:17:00,
2013-08-21 04:22:00,70.2,64.8,29.54,WSW,243,0.0,0.0,83,0.00,,,0.00,Wunderground v.1.15,2013-08-21 09:22:00,
2013-08-21 04:28:00,70.2,64.4,29.54,WSW,243,0.0,2.0,82,0.00,,,0.00,Wunderground v.1.15,2013-08-21 09:28:00,
2013-08-21 04:33:00,70.2,64.4,29.54,WSW,243,0.0,0.0,82,0.00,,,0.00,Wunderground v.1.15,2013-08-21 09:33:00,
2013-08-21 04:38:00,70.2,64.4,29.55,WSW,243,0.0,0.0,82,0.00,,,0.00,Wunderground v.1.15,2013-08-21 09:38:00,
2013-08-21 04:43:00,70.2,64.4,29.55,WSW,243,0.0,1.0,82,0.00,,,0.00,Wunderground v.1.15,2013-08-21 09:43:00,
2013-08-21 04:49:00,70.1,64.7,29.55,WSW,243,0.0,1.0,83,0.00,,,0.00,Wunderground v.1.15,2013-08-21 09:49:00,
2013-08-21 04:54:00,70.0,64.6,29.55,WSW,243,0.0,0.0,83,0.00,,,0.00,Wunderground v.1.15,2013-08-21 09:54:00,
2013-08-21 05:00:00,69.9,64.5,29.55,WSW,243,0.0,0.0,83,0.00,,,0.00,Wunderground v.1.15,2013-08-21 10:00:00,
2013-08-21 05:06:00,69.9,64.5,29.55,WSW,243,0.0,0.0,83,0.00,,,0.00,Wunderground v.1.15,2013-08-21 10:06:00,
2013-08-21 05:11:00,69.7,64.3,29.55,WSW,243,0.0,1.0,83,0.00,,,0.00,Wunderground v.1.15,2013-08-21 10:11:00,
2013-08-21 05:16:00,69.6,64.2,29.56,WSW,243,0.0,1.0,83,0.00,,,0.00,Wunderground v.1.15,2013-08-21 10:16:00,
2013-08-21 05:21:00,69.5,64.1,29.56,WSW,243,0.0,0.0,83,0.00,,,0.00,Wunderground v.1.15,2013-08-21 10:21:00,
2013-08-21 05:27:00,69.4,64.4,29.56,WSW,243,0.0,0.0,84,0.00,,,0.00,Wunderground v.1.15,2013-08-21 10:27:00,
2013-08-21 05:32:00,69.4,64.4,29.56,WSW,243,0.0,0.0,84,0.00,,,0.00,Wunderground v.1.15,2013-08-21 10:32:00,
2013-08-21 05:37:00,69.3,64.3,29.56,WSW,243,0.0,3.0,84,0.00,,,0.00,Wunderground v.1.15,2013-08-21 10:37:00,
2013-08-21 05:43:00,69.3,64.3,29.56,WSW,243,0.0,0.0,84,0.00,,,0.00,Wunderground v.1.15,2013-08-21 10:43:00,
2013-08-21 05:57:00,69.2,64.5,29.57,WSW,243,0.0,0.0,85,0.00,,,0.00,Wunderground v.1.15,2013-08-21 10:57:00,
2013-08-21 06:03:00,69.2,64.5,29.57,WSW,243,0.0,6.0,85,0.00,,,0.00,Wunderground v.1.15,2013-08-21 11:03:00,
2013-08-21 06:08:00,69.2,64.5,29.57,WSW,243,0.0,6.0,85,0.00,,,0.00,Wunderground v.1.15,2013-08-21 11:08:00,
2013-08-21 06:14:00,69.1,64.4,29.57,WSW,243,1.0,5.0,85,0.00,,,0.00,Wunderground v.1.15,2013-08-21 11:14:00,
2013-08-21 06:20:00,69.1,64.4,29.57,WSW,243,0.0,0.0,85,0.00,,,0.00,Wunderground v.1.15,2013-08-21 11:20:00,
2013-08-21 06:25:00,69.0,64.3,29.57,WSW,243,0.0,2.0,85,0.00,,,0.00,Wunderground v.1.15,2013-08-21 11:25:00,
2013-08-21 06:31:00,68.9,64.2,29.57,WSW,243,0.0,0.0,85,0.00,,,0.00,Wunderground v.1.15,2013-08-21 11:31:00,
2013-08-21 06:37:00,68.8,64.1,29.57,WSW,243,0.0,0.0,85,0.00,,,0.00,Wunderground v.1.15,2013-08-21 11:37:00,
2013-08-21 06:43:00,68.7,64.3,29.57,WSW,243,0.0,0.0,86,0.00,,,0.00,Wunderground v.1.15,2013-08-21 11:43:00,
2013-08-21 06:49:00,68.6,64.2,29.57,WSW,243,0.0,3.0,86,0.00,,,0.00,Wunderground v.1.15,2013-08-21 11:49:00,
2013-08-21 06:54:00,68.6,64.2,29.58,WSW,243,0.0,0.0,86,0.00,,,0.00,Wunderground v.1.15,2013-08-21 11:54:00,
2013-08-21 06:59:00,68.6,64.2,29.57,WSW,243,0.0,0.0,86,0.00,,,0.00,Wunderground v.1.15,2013-08-21 11:59:00,
2013-08-21 07:05:00,68.8,64.4,29.58,WSW,243,0.0,2.0,86,0.00,,,0.00,Wunderground v.1.15,2013-08-21 12:05:00,
2013-08-21 07:10:00,68.9,64.5,29.58,WSW,243,0.0,0.0,86,0.00,,,0.00,Wunderground v.1.15,2013-08-21 12:10:00,
2013-08-21 07:16:00,69.1,64.4,29.58,WSW,243,1.0,4.0,85,0.00,,,0.00,Wunderground v.1.15,2013-08-21 12:16:00,
2013-08-21 07:21:00,69.2,64.5,29.58,WSW,243,1.0,1.0,85,0.00,,,0.00,Wunderground v.1.15,2013-08-21 12:21:00,
2013-08-21 07:26:00,69.3,64.6,29.58,WSW,243,1.0,3.0,85,0.00,,,0.00,Wunderground v.1.15,2013-08-21 12:26:00,
2013-08-21 07:32:00,69.5,64.8,29.59,WSW,243,1.0,4.0,85,0.00,,,0.00,Wunderground v.1.15,2013-08-21 12:32:00,
2013-08-21 07:37:00,69.6,64.9,29.58,WSW,243,2.0,4.0,85,0.00,,,0.00,Wunderground v.1.15,2013-08-21 12:37:00,
2013-08-21 07:51:00,70.3,65.2,29.58,WSW,243,2.0,2.0,84,0.00,,,0.00,Wunderground v.1.15,2013-08-21 12:51:00,
2013-08-21 07:57:00,70.6,65.2,29.59,WSW,243,1.0,6.0,83,0.00,,,0.00,Wunderground v.1.15,2013-08-21 12:57:00,
2013-08-21 08:03:00,70.9,65.5,29.59,WSW,243,1.0,1.0,83,0.00,,,0.00,Wunderground v.1.15,2013-08-21 13:03:00,
2013-08-21 08:08:00,71.1,65.7,29.59,WSW,243,1.0,1.0,83,0.00,,,0.00,Wunderground v.1.15,2013-08-21 13:08:00,
2013-08-21 08:13:00,71.5,65.7,29.59,WSW,243,1.0,1.0,82,0.00,,,0.00,Wunderground v.1.15,2013-08-21 13:13:00,
2013-08-21 08:19:00,71.8,66.0,29.59,WSW,243,1.0,1.0,82,0.00,,,0.00,Wunderground v.1.15,2013-08-21 13:19:00,
2013-08-21 08:24:00,72.1,66.3,29.59,WSW,243,1.0,4.0,82,0.00,,,0.00,Wunderground v.1.15,2013-08-21 13:24:00,
2013-08-21 08:30:00,72.5,66.0,29.59,WSW,243,1.0,1.0,80,0.00,,,0.00,Wunderground v.1.15,2013-08-21 13:30:00,
2013-08-21 08:35:00,72.9,66.0,29.60,WSW,243,1.0,5.0,79,0.00,,,0.00,Wunderground v.1.15,2013-08-21 13:35:00,
2013-08-21 08:40:00,73.5,66.2,29.60,WSW,243,1.0,1.0,78,0.00,,,0.00,Wunderground v.1.15,2013-08-21 13:40:00,
2013-08-21 08:45:00,73.9,66.2,29.60,WSW,243,1.0,5.0,77,0.00,,,0.00,Wunderground v.1.15,2013-08-21 13:45:00,
2013-08-21 08:51:00,74.3,66.6,29.60,WSW,243,1.0,1.0,77,0.00,,,0.00,Wunderground v.1.15,2013-08-21 13:51:00,
2013-08-21 08:56:00,74.9,66.4,29.60,WSW,243,1.0,6.0,75,0.00,,,0.00,Wunderground v.1.15,2013-08-21 13:56:00,
2013-08-21 09:02:00,75.4,66.5,29.59,WSW,243,2.0,3.0,74,0.00,,,0.00,Wunderground v.1.15,2013-08-21 14:02:00,
2013-08-21 09:07:00,76.5,67.6,29.60,WSW,243,2.0,4.0,74,0.00,,,0.00,Wunderground v.1.15,2013-08-21 14:07:00,
2013-08-21 09:12:00,76.1,66.8,29.60,WSW,243,1.0,1.0,73,0.00,,,0.00,Wunderground v.1.15,2013-08-21 14:12:00,
2013-08-21 09:17:00,-999.9,-99.9,29.60,WSW,243,1.0,2.0,72,0.00,,,0.00,Wunderground v.1.15,2013-08-21 14:17:00,
2013-08-21 09:23:00,76.9,67.2,29.60,WSW,243,1.0,1.0,72,0.00,,,0.00,Wunderground v.1.15,2013-08-21 14:23:00,
2013-08-21 09:29:00,77.4,67.3,29.60,WSW,243,1.0,4.0,71,0.00,,,0.00,Wunderground v.1.15,2013-08-21 14:29:00,
2013-08-21 09:35:00,77.6,67.0,29.59,WSW,243,2.0,4.0,70,0.00,,,0.00,Wunderground v.1.15,2013-08-21 14:35:00,
2013-08-21 09:41:00,78.0,66.6,29.60,WSW,243,2.0,3.0,68,0.00,,,0.00,Wunderground v.1.15,2013-08-21 14:41:00,
2013-08-21 09:47:00,78.4,67.4,29.60,WSW,243,2.0,3.0,69,0.00,,,0.00,Wunderground v.1.15,2013-08-21 14:47:00,
2013-08-21 09:52:00,78.9,66.6,29.60,WSW,243,1.0,3.0,66,0.00,,,0.00,Wunderground v.1.15,2013-08-21 14:52:00,
2013-08-21 09:58:00,79.3,67.0,29.60,WSW,243,2.0,8.0,66,0.00,,,0.00,Wunderground v.1.15,2013-08-21 14:58:00,
2013-08-21 10:03:00,79.5,67.1,29.60,WSW,243,3.0,6.0,66,0.00,,,0.00,Wunderground v.1.15,2013-08-21 15:03:00,
2013-08-21 10:08:00,79.7,67.8,29.60,WSW,243,2.0,6.0,67,0.00,,,0.00,Wunderground v.1.15,2013-08-21 15:08:00,
2013-08-21 10:14:00,80.0,67.2,29.60,WSW,243,3.0,7.0,65,0.00,,,0.00,Wunderground v.1.15,2013-08-21 15:14:00,
2013-08-21 10:19:00,80.2,67.4,29.61,WSW,243,3.0,7.0,65,0.00,,,0.00,Wunderground v.1.15,2013-08-21 15:19:00,
2013-08-21 10:27:00,81.0,68.6,29.60,WSW,243,2.0,10.0,66,0.00,,,0.00,Wunderground v.1.15,2013-08-21 15:27:00,
2013-08-21 10:32:00,81.3,67.5,29.60,WSW,243,2.0,6.0,63,0.00,,,0.00,Wunderground v.1.15,2013-08-21 15:32:00,
2013-08-21 10:37:00,81.5,68.1,29.60,WSW,243,2.0,6.0,64,0.00,,,0.00,Wunderground v.1.15,2013-08-21 15:37:00,
2013-08-21 10:43:00,82.1,67.3,29.60,WSW,243,1.0,2.0,61,0.00,,,0.00,Wunderground v.1.15,2013-08-21 15:43:00,
2013-08-21 10:48:00,82.3,67.5,29.60,WSW,243,2.0,5.0,61,0.00,,,0.00,Wunderground v.1.15,2013-08-21 15:48:00,
2013-08-21 10:53:00,82.9,67.6,29.59,WSW,243,2.0,10.0,60,0.00,,,0.00,Wunderground v.1.15,2013-08-21 15:53:00,
2013-08-21 10:59:00,82.9,67.6,29.60,WSW,243,2.0,10.0,60,0.00,,,0.00,Wunderground v.1.15,2013-08-21 15:59:00,
2013-08-21 11:04:00,83.3,68.4,29.59,WSW,242,2.0,3.0,61,0.00,,,0.00,Wunderground v.1.15,2013-08-21 16:04:00,
2013-08-21 11:09:00,84.0,68.1,29.60,WSW,242,1.0,3.0,59,0.00,,,0.00,Wunderground v.1.15,2013-08-21 16:09:00,
2013-08-21 11:14:00,84.4,68.0,29.60,WSW,242,1.0,1.0,58,0.00,,,0.00,Wunderground v.1.15,2013-08-21 16:14:00,
2013-08-21 11:20:00,84.7,67.3,29.60,WSW,242,2.0,2.0,56,0.00,,,0.00,Wunderground v.1.15,2013-08-21 16:20:00,
2013-08-21 11:25:00,84.6,67.7,29.59,WSW,240,3.0,10.0,57,0.00,,,0.00,Wunderground v.1.15,2013-08-21 16:25:00,
2013-08-21 11:31:00,84.7,67.3,29.59,WSW,238,3.0,5.0,56,0.00,,,0.00,Wunderground v.1.15,2013-08-21 16:31:00,
2013-08-21 11:37:00,-999.9,-99.9,29.58,WSW,238,2.0,5.0,56,0.00,,,0.00,Wunderground v.1.15,2013-08-21 16:37:00,
2013-08-21 11:43:00,85.0,67.5,29.59,SW,236,2.0,4.0,56,0.00,,,0.00,Wunderground v.1.15,2013-08-21 16:43:00,
2013-08-21 11:49:00,85.1,67.6,29.59,SW,235,2.0,4.0,56,0.00,,,0.00,Wunderground v.1.15,2013-08-21 16:49:00,
2013-08-21 11:54:00,86.7,-99.9,29.59,SW,232,2.0,6.0,255,0.00,,,0.00,Wunderground v.1.15,2013-08-21 16:54:00,
2013-08-21 12:00:00,85.9,66.8,29.59,SW,215,4.0,4.0,53,0.00,,,0.00,Wunderground v.1.15,2013-08-21 17:00:00,
2013-08-21 12:06:00,-999.9,-99.9,29.59,SW,215,4.0,7.0,53,0.00,,,0.00,Wunderground v.1.15,2013-08-21 17:06:00,
2013-08-21 12:12:00,87.0,67.8,29.59,SSW,206,4.0,10.0,53,0.00,,,0.00,Wunderground v.1.15,2013-08-21 17:12:00,
2013-08-21 12:17:00,85.8,66.7,29.58,SSW,206,4.0,10.0,53,0.00,,,0.00,Wunderground v.1.15,2013-08-21 17:17:00,
2013-08-21 12:22:00,86.0,66.9,29.58,South,191,3.0,8.0,53,0.00,,,0.00,Wunderground v.1.15,2013-08-21 17:22:00,
2013-08-21 12:28:00,86.1,66.4,29.58,South,188,5.0,8.0,52,0.00,,,0.00,Wunderground v.1.15,2013-08-21 17:28:00,
2013-08-21 12:33:00,-999.9,-99.9,29.58,South,187,4.0,9.0,255,0.00,,,0.00,Wunderground v.1.15,2013-08-21 17:33:00,
2013-08-21 12:38:00,85.9,67.3,29.58,South,187,3.0,9.0,54,0.00,,,0.00,Wunderground v.1.15,2013-08-21 17:38:00,
2013-08-21 12:44:00,85.9,66.8,29.58,South,186,2.0,7.0,53,0.00,,,0.00,Wunderground v.1.15,2013-08-21 17:44:00,
2013-08-21 12:49:00,86.3,67.7,29.58,South,186,2.0,8.0,54,0.00,,,0.00,Wunderground v.1.15,2013-08-21 17:49:00,
2013-08-21 12:54:00,86.4,66.7,29.58,South,181,4.0,8.0,52,0.00,,,0.00,Wunderground v.1.15,2013-08-21 17:54:00,
2013-08-21 13:00:00,87.0,66.7,29.57,South,181,2.0,2.0,51,0.00,,,0.00,Wunderground v.1.15,2013-08-21 18:00:00,
2013-08-21 13:06:00,87.3,67.0,29.57,South,181,2.0,5.0,51,0.00,,,0.00,Wunderground v.1.15,2013-08-21 18:06:00,
2013-08-21 13:12:00,87.7,66.8,29.57,South,186,2.0,5.0,50,0.00,,,0.00,Wunderground v.1.15,2013-08-21 18:12:00,
2013-08-21 13:17:00,87.4,66.5,29.57,South,184,3.0,7.0,50,0.00,,,0.00,Wunderground v.1.15,2013-08-21 18:17:00,
2013-08-21 13:22:00,87.2,66.3,29.57,South,188,4.0,4.0,50,0.00,,,0.00,Wunderground v.1.15,2013-08-21 18:22:00,
2013-08-21 13:28:00,87.3,66.4,29.57,South,191,3.0,11.0,50,0.00,,,0.00,Wunderground v.1.15,2013-08-21 18:28:00,
2013-08-21 13:33:00,87.4,67.1,29.57,South,189,3.0,4.0,51,0.00,,,0.00,Wunderground v.1.15,2013-08-21 18:33:00,
2013-08-21 13:38:00,87.7,66.2,29.57,SSE,167,4.0,7.0,49,0.00,,,0.00,Wunderground v.1.15,2013-08-21 18:38:00,
2013-08-21 13:44:00,87.7,65.6,29.57,South,171,4.0,10.0,48,0.00,,,0.00,Wunderground v.1.15,2013-08-21 18:44:00,
2013-08-21 13:49:00,87.7,66.2,29.57,South,171,4.0,10.0,49,0.00,,,0.00,Wunderground v.1.15,2013-08-21 18:49:00,
2013-08-21 14:00:00,87.9,65.8,29.56,South,180,5.0,5.0,48,0.00,,,0.00,Wunderground v.1.15,2013-08-21 19:00:00,
2013-08-21 14:21:00,88.8,66.0,29.56,South,188,3.0,3.0,47,0.00,,,0.00,Wunderground v.1.15,2013-08-21 19:21:00,
2013-08-21 14:28:00,88.8,66.6,29.56,South,178,1.0,6.0,48,0.00,,,0.00,Wunderground v.1.15,2013-08-21 19:28:00,
2013-08-21 14:34:00,88.5,66.3,29.56,South,185,4.0,5.0,48,0.00,,,0.00,Wunderground v.1.15,2013-08-21 19:34:00,
2013-08-21 14:39:00,88.7,66.5,29.56,South,184,4.0,9.0,48,0.00,,,0.00,Wunderground v.1.15,2013-08-21 19:39:00,
2013-08-21 14:45:00,88.8,66.6,29.56,South,184,2.0,3.0,48,0.00,,,0.00,Wunderground v.1.15,2013-08-21 19:45:00,
2013-08-21 14:50:00,89.0,66.8,29.56,South,184,1.0,6.0,48,0.00,,,0.00,Wunderground v.1.15,2013-08-21 19:50:00,
2013-08-21 14:55:00,89.3,66.4,29.56,South,187,2.0,8.0,47,0.00,,,0.00,Wunderground v.1.15,2013-08-21 19:55:00,
2013-08-21 15:00:00,89.2,66.9,29.55,South,170,4.0,15.0,48,0.00,,,0.00,Wunderground v.1.15,2013-08-21 20:00:00,
2013-08-21 15:06:00,89.3,67.0,29.55,SSE,167,4.0,15.0,48,0.00,,,0.00,Wunderground v.1.15,2013-08-21 20:06:00,
2013-08-21 15:12:00,89.6,66.7,29.55,South,180,1.0,7.0,47,0.00,,,0.00,Wunderground v.1.15,2013-08-21 20:12:00,
2013-08-21 15:18:00,89.6,66.1,29.55,South,182,3.0,7.0,46,0.00,,,0.00,Wunderground v.1.15,2013-08-21 20:18:00,
2013-08-21 15:24:00,89.9,66.3,29.55,South,188,3.0,7.0,46,0.00,,,0.00,Wunderground v.1.15,2013-08-21 20:24:00,
2013-08-21 15:30:00,89.3,66.4,29.54,South,188,2.0,2.0,47,0.00,,,0.00,Wunderground v.1.15,2013-08-21 20:30:00,
2013-08-21 15:35:00,89.3,66.4,29.54,South,188,1.0,8.0,47,0.00,,,0.00,Wunderground v.1.15,2013-08-21 20:35:00,
2013-08-21 15:40:00,88.8,67.2,29.54,South,190,3.0,3.0,49,0.00,,,0.00,Wunderground v.1.15,2013-08-21 20:40:00,
2013-08-21 15:46:00,89.0,67.4,29.54,South,188,4.0,5.0,49,0.00,,,0.00,Wunderground v.1.15,2013-08-21 20:46:00,
2013-08-21 15:51:00,-999.9,-99.9,29.53,South,188,3.0,3.0,48,0.00,,,0.00,Wunderground v.1.15,2013-08-21 20:51:00,
2013-08-21 15:56:00,-999.9,-99.9,29.53,South,188,1.0,4.0,48,0.00,,,0.00,Wunderground v.1.15,2013-08-21 20:56:00,
2013-08-21 16:02:00,88.5,66.9,29.53,South,189,2.0,5.0,49,0.00,,,0.00,Wunderground v.1.15,2013-08-21 21:02:00,
2013-08-21 16:07:00,88.3,66.7,29.53,South,190,2.0,5.0,49,0.00,,,0.00,Wunderground v.1.15,2013-08-21 21:07:00,
2013-08-21 16:28:00,88.1,67.1,29.53,South,190,1.0,1.0,50,0.00,,,0.00,Wunderground v.1.15,2013-08-21 21:28:00,
2013-08-21 16:34:00,87.7,66.8,29.53,South,190,1.0,1.0,50,0.00,,,0.00,Wunderground v.1.15,2013-08-21 21:34:00,
2013-08-21 16:39:00,87.5,67.1,29.53,South,190,0.0,1.0,51,0.00,,,0.00,Wunderground v.1.15,2013-08-21 21:39:00,
2013-08-21 16:44:00,87.5,68.3,29.53,South,190,0.0,0.0,53,0.00,,,0.00,Wunderground v.1.15,2013-08-21 21:44:00,
2013-08-21 16:50:00,87.5,68.8,29.53,South,190,0.0,0.0,54,0.00,,,0.00,Wunderground v.1.15,2013-08-21 21:50:00,
2013-08-21 16:55:00,87.9,69.2,29.53,South,190,0.0,0.0,54,0.00,,,0.00,Wunderground v.1.15,2013-08-21 21:55:00,
2013-08-21 17:00:00,88.4,68.5,29.53,South,190,0.0,0.0,52,0.00,,,0.00,Wunderground v.1.15,2013-08-21 22:00:00,
2013-08-21 17:06:00,88.6,67.0,29.53,South,190,1.0,3.0,49,0.00,,,0.00,Wunderground v.1.15,2013-08-21 22:06:00,
2013-08-21 17:11:00,88.9,67.9,29.52,South,190,1.0,1.0,50,0.00,,,0.00,Wunderground v.1.15,2013-08-21 22:11:00,
2013-08-21 17:17:00,89.8,67.5,29.52,South,190,1.0,1.0,48,0.00,,,0.00,Wunderground v.1.15,2013-08-21 22:17:00,
2013-08-21 17:23:00,89.0,66.2,29.52,South,190,1.0,1.0,47,0.00,,,0.00,Wunderground v.1.15,2013-08-21 22:23:00,
2013-08-21 17:28:00,88.9,67.3,29.52,South,190,0.0,1.0,49,0.00,,,0.00,Wunderground v.1.15,2013-08-21 22:28:00,
2013-08-21 17:34:00,88.7,66.5,29.52,South,190,1.0,5.0,48,0.00,,,0.00,Wunderground v.1.15,2013-08-21 22:34:00,
2013-08-21 17:39:00,88.6,67.0,29.52,South,190,1.0,5.0,49,0.00,,,0.00,Wunderground v.1.15,2013-08-21 22:39:00,
2013-08-21 17:45:00,88.3,66.7,29.52,South,190,1.0,3.0,49,0.00,,,0.00,Wunderground v.1.15,2013-08-21 22:45:00,
2013-08-21 17:51:00,88.3,67.3,29.52,South,190,1.0,1.0,50,0.00,,,0.00,Wunderground v.1.15,2013-08-21 22:51:00,
2013-08-21 17:57:00,88.3,66.7,29.52,South,190,1.0,6.0,49,0.00,,,0.00,Wunderground v.1.15,2013-08-21 22:57:00,
2013-08-21 18:03:00,88.2,66.6,29.52,South,190,1.0,1.0,49,0.00,,,0.00,Wunderground v.1.15,2013-08-21 23:03:00,
2013-08-21 18:08:00,88.0,67.0,29.51,South,190,0.0,1.0,50,0.00,,,0.00,Wunderground v.1.15,2013-08-21 23:08:00,
2013-08-21 18:13:00,87.8,66.3,29.52,South,190,1.0,6.0,49,0.00,,,0.00,Wunderground v.1.15,2013-08-21 23:13:00,
2013-08-21 18:30:00,87.3,66.4,29.51,South,190,1.0,1.0,50,0.00,,,0.00,Wunderground v.1.15,2013-08-21 23:30:00,
2013-08-21 18:36:00,88.5,67.5,29.51,South,190,0.0,1.0,50,0.00,,,0.00,Wunderground v.1.15,2013-08-21 23:36:00,
2013-08-21 18:41:00,87.0,66.7,29.51,South,190,0.0,0.0,51,0.00,,,0.00,Wunderground v.1.15,2013-08-21 23:41:00,
2013-08-21 18:46:00,86.7,66.4,29.51,South,190,0.0,0.0,51,0.00,,,0.00,Wunderground v.1.15,2013-08-21 23:46:00,
2013-08-21 18:54:00,86.3,66.6,29.52,South,190,0.0,0.0,52,0.00,,,0.00,Wunderground v.1.15,2013-08-21 23:54:00,
2013-08-21 19:00:00,86.1,67.0,29.52,South,190,0.0,0.0,53,0.00,,,0.00,Wunderground v.1.15,2013-08-22 00:00:00,
2013-08-21 19:06:00,85.8,67.2,29.52,South,190,0.0,0.0,54,0.00,,,0.00,Wunderground v.1.15,2013-08-22 00:06:00,
2013-08-21 19:11:00,85.7,67.1,29.51,South,190,0.0,0.0,54,0.00,,,0.00,Wunderground v.1.15,2013-08-22 00:11:00,
2013-08-21 19:17:00,86.0,68.5,29.51,South,190,0.0,0.0,56,0.00,,,0.00,Wunderground v.1.15,2013-08-22 00:17:00,
2013-08-21 19:22:00,85.6,67.0,29.51,South,190,0.0,0.0,54,0.00,,,0.00,Wunderground v.1.15,2013-08-22 00:22:00,
2013-08-21 19:39:00,84.0,68.6,29.51,South,190,0.0,0.0,60,0.00,,,0.00,Wunderground v.1.15,2013-08-22 00:39:00,
2013-08-21 19:45:00,83.4,68.1,29.51,South,190,0.0,0.0,60,0.00,,,0.00,Wunderground v.1.15,2013-08-22 00:45:00,
2013-08-21 19:51:00,82.8,68.9,29.51,South,190,0.0,0.0,63,0.00,,,0.00,Wunderground v.1.15,2013-08-22 00:51:00,
2013-08-21 19:56:00,82.3,68.9,29.51,South,190,0.0,0.0,64,0.00,,,0.00,Wunderground v.1.15,2013-08-22 00:56:00,
2013-08-21 20:02:00,81.6,68.7,29.51,South,190,0.0,0.0,65,0.00,,,0.00,Wunderground v.1.15,2013-08-22 01:02:00,
2013-08-21 20:07:00,81.3,68.9,29.51,South,190,0.0,0.0,66,0.00,,,0.00,Wunderground v.1.15,2013-08-22 01:07:00,
2013-08-21 20:12:00,80.9,68.9,29.51,South,190,0.0,0.0,67,0.00,,,0.00,Wunderground v.1.15,2013-08-22 01:12:00,
2013-08-21 20:18:00,80.5,69.0,29.51,South,190,0.0,0.0,68,0.00,,,0.00,Wunderground v.1.15,2013-08-22 01:18:00,
2013-08-21 20:23:00,80.2,68.7,29.51,South,190,0.0,0.0,68,0.00,,,0.00,Wunderground v.1.15,2013-08-22 01:23:00,
2013-08-21 20:28:00,79.8,68.3,29.51,South,190,0.0,0.0,68,0.00,,,0.00,Wunderground v.1.15,2013-08-22 01:28:00,
2013-08-21 20:33:00,79.5,68.4,29.52,South,190,0.0,0.0,69,0.00,,,0.00,Wunderground v.1.15,2013-08-22 01:33:00,
2013-08-21 20:39:00,79.3,68.2,29.52,South,190,0.0,0.0,69,0.00,,,0.00,Wunderground v.1.15,2013-08-22 01:39:00,
2013-08-21 20:44:00,79.5,68.0,29.52,South,190,0.0,0.0,68,0.00,,,0.00,Wunderground v.1.15,2013-08-22 01:44:00,
2013-08-21 20:50:00,78.8,67.8,29.52,South,190,0.0,0.0,69,0.00,,,0.00,Wunderground v.1.15,2013-08-22 01:50:00,
2013-08-21 20:55:00,78.7,67.7,29.52,South,190,0.0,0.0,69,0.00,,,0.00,Wunderground v.1.15,2013-08-22 01:55:00,
2013-08-21 21:00:00,78.8,67.8,29.53,South,189,0.0,0.0,69,0.00,,,0.00,Wunderground v.1.15,2013-08-22 02:00:00,
2013-08-21 21:06:00,78.4,67.8,29.52,South,190,0.0,0.0,70,0.00,,,0.00,Wunderground v.1.15,2013-08-22 02:06:00,
2013-08-21 21:11:00,78.3,67.7,29.53,South,190,0.0,0.0,70,0.00,,,0.00,Wunderground v.1.15,2013-08-22 02:11:00,
2013-08-21 21:16:00,78.4,67.8,29.53,South,190,0.0,0.0,70,0.00,,,0.00,Wunderground v.1.15,2013-08-22 02:16:00,
2013-08-21 21:22:00,78.4,67.4,29.53,South,190,0.0,0.0,69,0.00,,,0.00,Wunderground v.1.15,2013-08-22 02:22:00,
2013-08-21 21:27:00,78.6,67.6,29.54,South,190,0.0,0.0,69,0.00,,,0.00,Wunderground v.1.15,2013-08-22 02:27:00,
2013-08-21 21:33:00,78.6,67.6,29.54,South,190,0.0,0.0,69,0.00,,,0.00,Wunderground v.1.15,2013-08-22 02:33:00,
2013-08-21 21:38:00,78.2,67.6,29.54,South,190,0.0,0.0,70,0.00,,,0.00,Wunderground v.1.15,2013-08-22 02:38:00,
2013-08-21 21:43:00,78.0,67.8,29.54,South,190,0.0,0.0,71,0.00,,,0.00,Wunderground v.1.15,2013-08-22 02:43:00,
2013-08-21 21:48:00,77.8,67.6,29.54,South,190,0.0,0.0,71,0.00,,,0.00,Wunderground v.1.15,2013-08-22 02:48:00,
2013-08-21 21:54:00,77.4,67.7,29.55,South,190,0.0,0.0,72,0.00,,,0.00,Wunderground v.1.15,2013-08-22 02:54:00,
2013-08-21 22:00:00,77.0,67.7,29.54,South,190,0.0,0.0,73,0.00,,,0.00,Wunderground v.1.15,2013-08-22 03:00:00,
2013-08-21 22:06:00,76.7,67.8,29.55,South,190,0.0,0.0,74,0.00,,,0.00,Wunderground v.1.15,2013-08-22 03:06:00,
2013-08-21 22:12:00,76.5,67.6,29.55,South,190,0.0,0.0,74,0.00,,,0.00,Wunderground v.1.15,2013-08-22 03:12:00,
2013-08-21 22:17:00,76.3,67.8,29.55,South,190,0.0,0.0,75,0.00,,,0.00,Wunderground v.1.15,2013-08-22 03:17:00,
2013-08-21 22:22:00,76.1,67.6,29.55,South,190,0.0,0.0,75,0.00,,,0.00,Wunderground v.1.15,2013-08-22 03:22:00,
2013-08-21 22:27:00,75.9,67.4,29.55,South,190,0.0,0.0,75,0.00,,,0.00,Wunderground v.1.15,2013-08-22 03:27:00,
2013-08-21 22:33:00,75.8,67.3,29.55,South,190,0.0,0.0,75,0.00,,,0.00,Wunderground v.1.15,2013-08-22 03:33:00,
2013-08-21 22:38:00,75.8,67.7,29.55,South,190,0.0,0.0,76,0.00,,,0.00,Wunderground v.1.15,2013-08-22 03:38:00,
2013-08-21 22:43:00,75.6,67.5,29.55,South,190,0.0,0.0,76,0.00,,,0.00,Wunderground v.1.15,2013-08-22 03:43:00,
2013-08-21 23:01:00,75.4,67.3,29.55,South,190,0.0,0.0,76,0.00,,,0.00,Wunderground v.1.15,2013-08-22 04:01:00,
2013-08-21 23:02:00,75.3,67.2,29.56,South,190,0.0,0.0,76,0.00,,,0.00,Wunderground v.1.15,2013-08-22 04:02:00,
2013-08-21 23:12:00,75.8,66.9,29.55,South,190,0.0,0.0,74,0.00,,,0.00,Wunderground v.1.15,2013-08-22 04:12:00,
2013-08-21 23:18:00,75.8,67.3,29.55,South,190,0.0,1.0,75,0.00,,,0.00,Wunderground v.1.15,2013-08-22 04:18:00,
2013-08-21 23:23:00,75.7,67.2,29.56,South,190,0.0,0.0,75,0.00,,,0.00,Wunderground v.1.15,2013-08-22 04:23:00,
2013-08-21 23:28:00,75.4,67.3,29.56,South,190,0.0,0.0,76,0.00,,,0.00,Wunderground v.1.15,2013-08-22 04:28:00,
2013-08-21 23:34:00,75.5,-99.9,29.56,South,190,0.0,2.0,255,0.00,,,0.00,Wunderground v.1.15,2013-08-22 04:34:00,
2013-08-21 23:39:00,75.3,67.2,29.56,South,190,0.0,2.0,76,0.00,,,0.00,Wunderground v.1.15,2013-08-22 04:39:00,
2013-08-21 23:44:00,75.3,-99.9,29.56,South,190,0.0,0.0,255,0.00,,,0.00,Wunderground v.1.15,2013-08-22 04:44:00,
2013-08-21 23:49:00,75.1,67.0,29.55,South,190,0.0,1.0,76,0.00,,,0.00,Wunderground v.1.15,2013-08-22 04:49:00,
2013-08-21 23:59:00,75.2,67.1,29.55,South,190,0.0,2.0,76,0.00,,,0.00,Wunderground v.1.15,2013-08-22 04:59:00,